Time,TemperatureF,DewpointF,PressureIn,WindDirection,WindDirectionDegrees,WindSpeedMPH,WindSpeedGustMPH,Humidity,HourlyPrecipIn,Conditions,Clouds,dailyrainin,SoftwareType,DateUTC
2013-07-17 00:25:00,73.8,40.4,27.87,East,90,0.7,2.2,30,0.00,,,0.00,pywws,2013-07-17 07:25:00,
2013-07-17 00:55:00,72.0,39.7,27.87,SE,135,0.7,1.6,31,0.00,,,0.00,pywws,2013-07-17 07:55:00,
2013-07-17 01:25:00,72.0,40.5,27.86,South,180,0.7,2.2,32,0.00,,,0.00,pywws,2013-07-17 08:25:00,
2013-07-17 01:55:00,71.6,41.7,27.84,South,180,1.6,2.2,34,0.00,,,0.00,pywws,2013-07-17 08:55:00,
2013-07-17 02:25:00,71.1,42.7,27.85,South,180,0.7,3.1,36,0.00,,,0.00,pywws,2013-07-17 09:25:00,
2013-07-17 02:55:00,72.9,42.1,27.89,SE,135,1.6,3.1,33,0.00,,,0.00,pywws,2013-07-17 09:55:00,
2013-07-17 03:25:00,65.7,49.5,27.89,SE,135,2.2,3.1,56,0.00,,,0.00,pywws,2013-07-17 10:25:00,
2013-07-17 03:55:00,67.5,43.6,27.88,SW,225,0.7,2.2,42,0.00,,,0.00,pywws,2013-07-17 10:55:00,
2013-07-17 04:25:00,68.5,44.5,27.89,WSW,248,5.4,9.2,42,0.00,,,0.00,pywws,2013-07-17 11:25:00,
2013-07-17 04:55:00,70.3,44.9,27.90,South,180,0.7,3.1,40,0.00,,,0.00,pywws,2013-07-17 11:55:00,
2013-07-17 05:25:00,69.8,45.7,27.90,South,180,1.6,3.1,42,0.00,,,0.00,pywws,2013-07-17 12:25:00,
2013-07-17 05:55:00,69.3,47.0,27.91,South,180,1.6,2.2,45,0.00,,,0.00,pywws,2013-07-17 12:55:00,
2013-07-17 06:25:00,70.2,47.2,27.92,South,180,1.6,3.1,44,0.00,,,0.00,pywws,2013-07-17 13:25:00,
2013-07-17 06:55:00,67.5,49.2,27.92,South,180,2.2,3.8,52,0.00,,,0.00,pywws,2013-07-17 13:55:00,
2013-07-17 07:25:00,68.7,49.3,27.93,SW,225,0.7,2.2,50,0.00,,,0.00,pywws,2013-07-17 14:25:00,
2013-07-17 07:55:00,73.0,48.6,27.94,SSE,158,0.7,1.6,42,0.00,,,0.00,pywws,2013-07-17 14:55:00,
2013-07-17 08:25:00,75.7,50.3,27.95,West,270,5.4,8.3,41,0.00,,,0.00,pywws,2013-07-17 15:25:00,
2013-07-17 08:55:00,73.4,50.8,27.96,West,270,3.1,4.5,45,0.00,,,0.00,pywws,2013-07-17 15:55:00,
2013-07-17 09:25:00,72.1,51.4,27.96,SE,135,0.7,1.6,48,0.00,,,0.00,pywws,2013-07-17 16:25:00,
2013-07-17 09:55:00,80.2,52.3,27.96,SW,225,3.1,4.5,38,0.00,,,0.00,pywws,2013-07-17 16:55:00,
2013-07-17 10:55:00,81.5,49.6,27.97,SW,225,3.1,5.4,33,0.00,,,0.00,pywws,2013-07-17 17:55:00,
2013-07-17 11:25:00,83.1,47.5,27.97,NW,315,5.4,8.3,29,0.00,,,0.00,pywws,2013-07-17 18:25:00,
2013-07-17 11:55:00,83.8,47.2,27.97,NE,45,3.1,6.0,28,0.00,,,0.00,pywws,2013-07-17 18:55:00,
2013-07-17 12:25:00,84.7,48.0,27.97,SW,225,3.8,5.4,28,0.00,,,0.00,pywws,2013-07-17 19:25:00,
2013-07-17 12:55:00,86.2,49.2,27.97,West,270,3.1,4.5,28,0.00,,,0.00,pywws,2013-07-17 19:55:00,
2013-07-17 13:25:00,88.7,50.4,27.97,NE,45,2.2,4.5,27,0.00,,,0.00,pywws,2013-07-17 20:25:00,
2013-07-17 13:55:00,88.0,48.8,27.97,SW,225,1.6,3.1,26,0.00,,,0.00,pywws,2013-07-17 20:55:00,
2013-07-17 14:25:00,89.2,49.8,27.96,South,180,2.2,4.5,26,0.00,,,0.00,pywws,2013-07-17 21:25:00,
2013-07-17 14:55:00,88.3,49.1,27.96,West,270,6.9,9.2,26,0.00,,,0.00,pywws,2013-07-17 21:55:00,
2013-07-17 15:25:00,91.0,48.1,27.95,West,270,6.9,11.4,23,0.00,,,0.00,pywws,2013-07-17 22:25:00,
2013-07-17 15:55:00,90.7,44.1,27.95,NE,45,3.1,5.4,20,0.00,,,0.00,pywws,2013-07-17 22:55:00,
2013-07-17 16:25:00,89.6,46.9,27.94,SW,225,0.0,1.6,23,0.00,,,0.00,pywws,2013-07-17 23:25:00,
2013-07-17 16:55:00,91.6,46.1,27.94,West,270,2.2,5.4,21,0.00,,,0.00,pywws,2013-07-17 23:55:00,
2013-07-17 17:25:00,91.8,44.9,27.94,West,270,6.0,10.7,20,0.00,,,0.00,pywws,2013-07-18 00:25:00,
2013-07-17 17:55:00,91.6,46.1,27.94,SSW,202,1.6,6.0,21,0.00,,,0.00,pywws,2013-07-18 00:55:00,
2013-07-17 18:25:00,90.5,46.4,27.94,West,270,8.3,10.7,22,0.00,,,0.00,pywws,2013-07-18 01:25:00,
2013-07-17 18:55:00,90.0,43.5,27.96,NW,315,2.2,6.9,20,0.00,,,0.00,pywws,2013-07-18 01:55:00,
2013-07-17 19:25:00,88.3,42.1,27.96,West,270,4.5,6.0,20,0.00,,,0.00,pywws,2013-07-18 02:25:00,
2013-07-17 19:55:00,84.9,40.6,27.97,West,270,6.0,11.4,21,0.00,,,0.00,pywws,2013-07-18 02:55:00,
2013-07-17 20:25:00,80.4,38.1,27.99,South,180,6.0,11.4,22,0.00,,,0.00,pywws,2013-07-18 03:25:00,
2013-07-17 20:55:00,78.1,39.4,28.00,South,180,1.6,3.1,25,0.00,,,0.00,pywws,2013-07-18 03:55:00,
2013-07-17 21:25:00,76.6,41.1,28.01,NW,315,8.3,14.5,28,0.00,,,0.00,pywws,2013-07-18 04:25:00,
2013-07-17 21:55:00,75.2,41.6,28.03,NW,315,4.5,12.1,30,0.00,,,0.00,pywws,2013-07-18 04:55:00,
2013-07-17 22:25:00,73.4,41.7,28.04,West,270,3.1,7.6,32,0.00,,,0.00,pywws,2013-07-18 05:25:00,
2013-07-17 22:55:00,72.3,42.4,28.04,SW,225,3.8,6.9,34,0.00,,,0.00,pywws,2013-07-18 05:55:00,
2013-07-17 23:25:00,71.6,41.7,28.04,NW,315,3.8,6.9,34,0.00,,,0.00,pywws,2013-07-18 06:25:00,
2013-07-17 23:55:00,70.5,41.5,28.04,SE,135,1.6,3.8,35,0.00,,,0.00,pywws,2013-07-18 06:55:00,